Vorticity
11 11 11 10 8 8 8 9 11 15 20 25 26 22 18 19 22 24 25 23 22 21 20 19 19 18 19 19 20 19 21 22 22 24 25 24 23 24 26 29 31 31 23 16 18 18 14 18 21 16 13 20 28 25 15 9 8 9 11 11 10 8 6
11 10 10 9 8 8 9 11 14 19 23 25 24 19 18 21 23 23 22 18 17 16 15 15 15 15 16 16 17 17 17 18 19 20 22 23 25 24 23 24 27 33 33 23 17 17 16 15 17 19 16 15 22 29 26 19 12 9 9 10 10 8 8
10 9 8 8 8 9 10 13 17 23 26 24 20 18 21 24 23 20 18 15 14 14 14 15 15 15 17 17 18 18 17 16 16 17 18 19 22 24 24 24 24 26 32 33 26 20 18 15 13 15 17 15 16 22 28 27 21 15 11 10 10 9 7
10 9 8 8 9 10 12 16 21 25 24 20 17 19 23 24 21 17 15 14 14 14 14 14 14 14 14 14 15 16 16 17 16 16 16 15 17 20 21 23 25 26 27 30 31 28 25 22 16 12 13 14 14 16 22 27 27 24 19 12 11 12 9
9 8 8 9 10 12 15 18 23 24 21 17 18 21 23 22 18 15 14 14 14 14 13 13 13 13 12 13 14 14 14 14 15 15 15 15 14 15 17 19 21 25 27 27 28 27 28 29 26 18 13 12 12 12 16 22 25 26 26 21 15 13 11
9 8 9 10 11 14 18 21 23 22 18 17 20 23 23 20 16 14 14 14 13 13 13 13 13 13 13 13 13 14 14 14 14 14 13 15 15 14 15 16 17 19 23 26 28 27 25 27 31 29 22 14 11 12 13 16 20 23 26 26 22 18 15
9 9 10 11 13 17 21 23 22 19 16 18 22 24 22 17 15 14 13 12 13 13 14 15 15 16 15 15 14 14 14 14 14 14 14 14 15 15 15 16 16 17 18 21 24 27 26 24 26 31 31 24 16 13 13 12 14 18 21 24 25 23 20
9 9 10 12 15 19 22 22 19 17 16 19 23 24 20 14 13 13 12 13 14 15 16 17 18 18 17 17 17 16 16 15 14 14 14 14 14 15 15 15 16 17 17 18 19 22 25 26 24 25 30 32 26 21 18 14 12 12 15 19 22 23 23
9 10 11 13 16 19 22 21 18 16 17 21 24 23 18 13 12 11 12 15 16 16 16 14 13 13 13 14 15 17 18 18 17 15 14 15 15 15 15 15 15 15 16 17 17 18 20 23 24 24 25 28 30 29 26 20 16 13 11 14 16 19 21
10 11 12 15 17 20 22 20 17 17 19 22 24 21 15 12 11 12 14 15 15 13 12 11 10 11 12 13 15 18 20 20 21 21 20 18 17 17 16 16 16 16 16 16 16 17 17 18 21 25 26 24 24 29 31 27 23 17 13 12 13 15 17
10 12 14 17 18 21 22 20 17 18 21 24 24 18 13 11 12 14 15 13 12 13 13 13 14 15 15 16 16 17 19 20 22 23 23 21 20 19 19 18 17 18 18 18 18 17 17 17 17 20 25 25 22 23 27 30 30 25 19 15 13 13 14
11 13 16 18 19 21 21 19 18 19 23 26 22 14 10 12 14 14 13 12 13 15 16 15 15 15 15 16 17 18 18 19 20 21 22 22 21 20 20 20 20 21 21 21 21 20 18 18 17 16 19 23 24 22 22 25 30 30 26 22 18 14 12
11 14 16 18 20 22 20 18 18 21 25 26 19 11 10 13 15 13 12 14 15 15 15 15 15 16 15 15 18 20 19 18 18 19 21 22 22 22 21 22 24 25 26 25 24 23 21 19 18 17 16 18 22 23 22 21 24 27 28 28 25 20 16
12 15 17 18 21 22 20 18 18 22 27 25 15 9 12 15 14 12 12 14 14 13 14 15 15 15 15 15 17 19 19 18 18 18 18 19 20 21 22 23 25 27 29 30 29 26 24 22 20 19 16 16 18 21 22 22 21 22 24 27 29 27 23
13 16 18 19 21 22 21 19 19 24 28 22 12 9 14 16 12 10 11 10 8 8 9 11 13 15 16 15 14 14 15 17 19 20 20 20 19 19 20 21 22 23 26 30 31 30 28 25 22 20 18 17 17 17 19 22 22 21 20 22 26 28 28
15 17 18 20 21 21 21 19 20 26 28 19 10 11 15 15 10 7 7 5 3 3 4 5 8 13 17 17 12 10 12 14 17 20 22 22 20 18 17 18 19 19 22 26 29 32 32 28 24 22 20 18 17 16 16 19 23 23 20 19 21 23 26
16 18 19 20 21 21 21 20 21 27 27 16 9 13 15 12 6 4 4 3 2 2 3 4 4 7 14 18 14 12 12 12 14 19 21 22 20 17 17 18 19 20 22 25 28 32 35 34 29 24 21 20 18 17 15 15 19 22 22 20 19 19 22
17 19 19 20 21 21 21 20 23 28 25 14 9 13 14 9 4 3 4 5 5 5 6 8 5 3 9 16 15 13 12 10 12 15 18 20 23 23 23 23 23 23 24 25 27 29 35 39 36 29 24 22 19 17 16 15 16 19 21 21 20 18 18
17 20 20 20 20 21 20 21 24 28 23 13 10 13 11 6 2 3 6 7 7 7 9 11 9 4 5 12 15 13 11 11 12 13 15 20 24 25 24 22 21 21 20 20 21 23 26 33 37 34 27 23 21 19 16 14 14 16 19 21 21 20 18
17 19 20 20 20 20 20 21 25 28 22 12 11 12 9 4 3 4 7 8 8 9 10 13 13 8 4 8 14 13 11 12 12 11 15 19 20 19 21 20 18 19 19 18 19 20 22 25 30 33 30 25 22 20 18 15 13 14 17 19 20 20 19
18 19 20 20 20 20 21 21 25 28 21 12 12 11 6 3 3 5 8 9 9 10 11 12 15 12 5 5 11 13 12 12 11 11 16 20 17 16 19 21 20 19 20 20 20 21 23 24 26 29 30 26 23 21 19 17 14 12 15 18 20 20 19
17 19 20 20 20 21 21 21 25 28 21 12 12 11 5 3 4 6 9 11 10 10 11 13 16 15 8 4 7 11 12 11 11 12 15 18 18 15 17 20 21 20 19 20 20 20 22 24 26 28 29 27 24 22 20 18 15 13 13 15 18 19 18
17 18 20 21 21 21 22 21 24 28 21 12 12 11 5 3 5 6 9 11 10 10 11 13 15 16 13 6 4 8 12 12 11 12 13 16 17 17 16 18 21 23 22 21 22 23 23 24 25 26 28 28 26 23 21 19 16 13 12 13 15 17 18
18 17 19 21 21 22 23 21 24 27 20 12 12 11 5 3 5 7 9 11 11 11 11 13 14 15 16 12 4 5 11 13 11 10 11 13 15 16 16 18 20 23 23 23 23 24 25 25 24 24 26 28 27 25 22 21 18 15 13 12 13 15 16
18 17 18 21 21 22 23 21 24 27 20 12 12 11 5 4 5 7 8 10 11 12 12 12 13 14 16 17 9 4 8 14 13 10 10 13 14 13 15 19 20 21 23 23 23 23 24 25 25 24 24 25 26 26 24 22 20 17 14 12 12 13 14
18 17 18 21 21 22 23 21 24 27 20 12 12 11 6 4 5 6 8 8 9 12 12 12 14 14 16 18 14 6 5 11 16 13 12 14 14 12 14 17 19 19 22 24 22 20 20 22 24 24 24 24 25 25 25 24 23 20 17 14 12 11 12
18 16 18 21 21 23 23 21 24 27 20 12 12 11 6 4 5 5 6 6 7 10 12 12 14 15 16 18 17 10 3 6 14 15 12 12 13 12 13 15 16 17 20 22 23 22 20 20 22 23 23 23 24 24 25 25 25 24 21 18 15 12 12
16 15 18 21 21 23 23 21 23 27 20 12 12 11 6 5 6 5 5 5 5 7 10 12 13 15 17 20 20 14 5 3 9 15 13 10 10 12 13 14 14 16 18 19 21 22 22 21 21 21 21 22 22 23 24 24 25 25 24 22 20 17 14
16 15 17 21 21 23 23 21 23 27 20 12 12 12 7 4 5 5 4 4 4 5 8 11 13 14 16 20 22 18 10 3 5 11 14 11 10 11 13 13 14 15 17 18 19 21 21 21 22 22 22 21 21 21 22 23 23 24 25 25 24 22 19
15 14 17 21 21 23 24 21 22 26 21 12 12 13 7 5 5 4 3 2 2 3 5 8 11 13 15 19 23 22 16 7 2 7 12 14 12 11 11 12 13 14 15 15 17 20 21 20 20 22 23 23 23 22 22 22 21 22 23 24 25 25 24
14 14 17 21 20 22 24 21 21 26 21 12 12 13 8 5 5 3 2 2 1 2 3 5 9 12 14 17 22 24 20 12 5 5 9 11 12 13 12 12 13 13 13 13 14 17 20 20 19 20 21 22 24 24 24 24 23 23 23 24 24 24 25
13 13 17 21 20 22 24 21 20 26 23 13 12 14 10 6 5 4 2 1 1 1 2 3 6 10 13 15 20 25 24 18 10 6 4 6 9 11 12 12 12 11 12 13 13 14 16 18 18 18 20 20 21 22 23 23 24 24 25 25 25 25 25
13 13 17 20 20 22 24 21 19 25 25 15 11 14 11 7 5 4 2 1 1 1 1 2 3 7 11 14 18 23 26 23 16 10 4 3 6 9 11 12 12 11 11 13 13 12 12 15 16 16 17 18 18 19 19 20 21 22 22 23 23 24 24
13 13 17 20 20 21 24 22 19 24 26 17 10 13 13 8 5 4 2 1 1 1 1 2 2 4 8 12 15 20 24 25 21 16 10 6 5 7 9 11 12 11 10 11 12 11 11 11 12 13 14 15 16 17 17 17 18 18 18 19 20 21 22
13 13 17 20 20 21 24 22 18 22 27 20 11 12 14 10 6 5 3 1 1 1 1 1 2 3 5 9 13 17 21 24 23 20 16 12 9 7 7 9 10 11 11 11 11 11 11 11 10 10 11 11 12 14 14 14 15 16 16 16 17 17 18
12 13 16 20 20 20 23 22 18 20 27 23 13 10 14 13 8 5 3 1 1 1 2 2 2 3 4 6 11 15 18 21 22 21 19 16 13 10 9 9 9 10 10 10 11 11 12 12 11 10 10 10 10 12 12 12 13 13 13 13 13 13 13
Height
5390 5386 5381 5376 5371 5365 5360 5353 5347 5340 5334 5328 5323 5318 5312 5307 5304 5301 5298 5295 5292 5291 5290 5289 5288 5288 5286 5284 5283 5282 5281 5280 5280 5279 5280 5280 5282 5284 5287 5289 5291 5295 5305 5312 5318 5324 5328 5333 5339 5346 5353 5360 5365 5370 5375 5380 5389 5397 5404 5412 5418 5423 5428
5380 5375 5370 5365 5359 5353 5348 5342 5335 5328 5322 5316 5312 5309 5304 5298 5294 5291 5289 5286 5284 5282 5281 5279 5279 5279 5278 5276 5274 5274 5272 5271 5270 5269 5269 5270 5270 5272 5274 5276 5277 5281 5288 5297 5303 5308 5312 5319 5325 5330 5336 5343 5349 5355 5359 5364 5373 5381 5389 5396 5403 5408 5413
5370 5365 5360 5354 5348 5342 5336 5330 5324 5318 5312 5306 5301 5298 5294 5290 5286 5283 5281 5279 5277 5275 5273 5271 5270 5269 5269 5267 5266 5266 5264 5263 5262 5260 5260 5260 5260 5260 5263 5264 5265 5268 5275 5282 5288 5292 5297 5305 5311 5315 5320 5327 5333 5338 5343 5350 5358 5365 5373 5381 5388 5394 5400
5360 5355 5349 5343 5338 5331 5325 5319 5314 5308 5302 5297 5292 5288 5285 5281 5278 5275 5273 5271 5270 5268 5266 5264 5262 5261 5259 5258 5258 5258 5256 5254 5253 5252 5251 5251 5250 5250 5252 5253 5254 5257 5262 5267 5273 5278 5282 5289 5295 5301 5306 5311 5315 5321 5329 5337 5344 5350 5357 5365 5371 5377 5384
5350 5345 5339 5333 5327 5321 5315 5309 5303 5298 5293 5288 5283 5279 5276 5273 5271 5268 5266 5264 5262 5260 5258 5256 5255 5253 5251 5249 5249 5249 5248 5246 5245 5244 5242 5242 5241 5241 5241 5242 5244 5247 5250 5254 5259 5264 5267 5273 5280 5286 5291 5294 5298 5307 5316 5324 5330 5335 5341 5348 5354 5359 5368
5340 5335 5329 5323 5317 5311 5304 5298 5293 5288 5284 5279 5275 5271 5268 5266 5264 5262 5259 5257 5255 5253 5251 5249 5247 5246 5243 5241 5240 5240 5239 5237 5236 5235 5234 5233 5232 5232 5232 5233 5235 5237 5239 5242 5246 5250 5253 5258 5264 5270 5275 5278 5285 5295 5304 5310 5316 5321 5324 5331 5337 5344 5353
5331 5325 5319 5313 5307 5301 5295 5289 5284 5279 5275 5270 5267 5264 5261 5259 5257 5255 5253 5251 5248 5246 5244 5242 5240 5238 5236 5233 5231 5230 5229 5228 5227 5226 5225 5224 5223 5222 5223 5224 5226 5227 5228 5231 5234 5237 5240 5244 5249 5255 5259 5264 5273 5282 5290 5295 5302 5306 5308 5315 5323 5329 5338
5321 5316 5310 5304 5298 5291 5285 5280 5275 5271 5266 5262 5259 5257 5255 5252 5250 5248 5246 5244 5242 5240 5237 5235 5233 5230 5228 5226 5224 5222 5220 5219 5218 5217 5216 5215 5213 5213 5214 5216 5217 5217 5218 5220 5222 5225 5228 5231 5236 5242 5246 5252 5261 5268 5275 5280 5286 5291 5294 5299 5308 5316 5323
5312 5307 5301 5295 5289 5283 5277 5271 5266 5262 5258 5255 5252 5250 5248 5246 5244 5242 5240 5238 5236 5233 5231 5228 5226 5223 5221 5218 5216 5214 5213 5211 5209 5207 5207 5206 5204 5204 5205 5206 5207 5208 5208 5210 5212 5214 5216 5219 5224 5229 5234 5242 5248 5252 5258 5262 5269 5277 5281 5285 5294 5303 5309
5303 5298 5292 5286 5280 5274 5268 5263 5259 5254 5250 5247 5245 5243 5242 5240 5238 5236 5234 5232 5229 5227 5224 5221 5219 5217 5214 5211 5209 5208 5206 5203 5201 5199 5198 5197 5195 5195 5196 5197 5197 5197 5198 5200 5202 5204 5206 5208 5213 5218 5223 5231 5235 5237 5242 5248 5255 5263 5268 5273 5281 5288 5295
5295 5289 5283 5277 5271 5266 5261 5256 5251 5247 5243 5240 5238 5236 5235 5234 5233 5230 5228 5225 5223 5220 5218 5215 5213 5210 5208 5205 5203 5201 5199 5196 5193 5191 5189 5188 5186 5186 5187 5186 5186 5187 5188 5190 5192 5194 5196 5198 5202 5207 5212 5218 5221 5223 5228 5235 5242 5249 5255 5261 5268 5274 5281
5287 5281 5275 5269 5263 5258 5253 5249 5244 5240 5236 5234 5232 5229 5228 5228 5227 5225 5222 5219 5217 5215 5212 5210 5207 5205 5202 5199 5197 5194 5192 5189 5185 5183 5181 5180 5178 5177 5177 5176 5176 5177 5178 5180 5182 5184 5186 5187 5191 5196 5201 5205 5209 5212 5216 5222 5229 5236 5242 5248 5255 5262 5269
5278 5273 5267 5261 5256 5250 5245 5241 5237 5233 5230 5228 5226 5223 5222 5222 5221 5219 5217 5214 5212 5210 5207 5205 5202 5200 5196 5193 5191 5188 5185 5182 5179 5176 5174 5172 5171 5169 5168 5167 5167 5167 5168 5169 5171 5173 5175 5177 5180 5185 5190 5194 5197 5201 5206 5211 5217 5224 5229 5235 5242 5249 5256
5270 5265 5259 5254 5248 5243 5238 5234 5230 5227 5224 5222 5220 5218 5217 5217 5215 5213 5211 5209 5207 5205 5203 5200 5197 5195 5192 5188 5186 5183 5179 5176 5173 5170 5167 5165 5163 5162 5161 5159 5159 5158 5158 5159 5160 5162 5164 5166 5169 5174 5179 5182 5186 5191 5196 5200 5205 5212 5218 5223 5230 5237 5243
5262 5257 5251 5246 5241 5236 5232 5227 5223 5221 5219 5216 5214 5213 5213 5212 5210 5208 5207 5205 5202 5200 5198 5196 5193 5190 5187 5184 5181 5178 5174 5171 5167 5164 5161 5159 5157 5155 5154 5152 5151 5150 5149 5149 5150 5152 5154 5156 5159 5163 5168 5172 5176 5181 5186 5190 5195 5201 5207 5213 5219 5225 5231
5254 5249 5244 5239 5234 5230 5226 5221 5216 5214 5213 5211 5209 5209 5208 5207 5205 5204 5202 5200 5198 5196 5194 5191 5188 5185 5182 5179 5176 5173 5169 5166 5163 5160 5157 5154 5152 5149 5147 5146 5144 5143 5141 5141 5142 5144 5145 5147 5150 5153 5158 5163 5167 5171 5176 5181 5186 5191 5197 5203 5209 5215 5220
5247 5241 5236 5232 5227 5223 5219 5214 5210 5209 5207 5205 5204 5204 5204 5202 5201 5199 5198 5195 5193 5191 5189 5187 5184 5181 5178 5175 5172 5168 5165 5161 5158 5156 5153 5149 5146 5144 5142 5140 5138 5137 5136 5135 5136 5136 5138 5140 5142 5145 5149 5154 5158 5162 5167 5172 5178 5182 5187 5193 5199 5205 5210
5239 5234 5229 5224 5220 5216 5213 5208 5204 5203 5202 5200 5199 5199 5199 5198 5196 5195 5193 5191 5188 5186 5185 5183 5180 5177 5174 5171 5167 5164 5161 5157 5154 5152 5149 5145 5142 5139 5137 5135 5133 5131 5130 5130 5130 5130 5131 5133 5135 5138 5141 5145 5150 5154 5158 5164 5170 5174 5178 5184 5190 5195 5201
5232 5227 5222 5217 5213 5209 5206 5203 5199 5197 5196 5195 5194 5194 5194 5193 5192 5191 5189 5186 5184 5182 5180 5178 5176 5173 5170 5167 5163 5160 5157 5153 5150 5147 5145 5142 5138 5135 5132 5130 5128 5126 5125 5124 5124 5124 5124 5126 5128 5130 5133 5137 5142 5146 5151 5156 5162 5167 5171 5176 5181 5186 5193
5224 5220 5215 5211 5206 5203 5199 5197 5194 5192 5191 5190 5189 5189 5189 5188 5188 5187 5185 5182 5180 5178 5176 5173 5171 5169 5166 5163 5160 5156 5153 5150 5146 5143 5141 5138 5135 5132 5128 5126 5124 5122 5120 5119 5119 5119 5119 5120 5121 5123 5126 5130 5134 5139 5144 5149 5155 5160 5164 5169 5173 5179 5185
5217 5213 5208 5204 5200 5197 5193 5190 5188 5186 5185 5185 5185 5185 5184 5184 5183 5182 5181 5178 5175 5173 5171 5169 5167 5165 5162 5159 5156 5153 5150 5147 5143 5140 5138 5135 5132 5128 5125 5122 5120 5118 5117 5115 5115 5114 5115 5115 5116 5118 5120 5123 5127 5132 5138 5143 5148 5153 5158 5162 5167 5172 5178
5210 5206 5202 5198 5194 5191 5187 5185 5183 5181 5180 5180 5180 5180 5180 5179 5179 5178 5176 5174 5172 5169 5167 5165 5163 5161 5158 5155 5153 5150 5147 5144 5141 5137 5135 5132 5129 5125 5122 5120 5117 5115 5113 5112 5111 5111 5111 5111 5112 5114 5115 5118 5122 5127 5132 5137 5142 5147 5152 5156 5161 5166 5170
5203 5199 5195 5191 5188 5185 5182 5179 5177 5176 5175 5175 5175 5175 5175 5175 5174 5174 5172 5170 5168 5165 5163 5161 5159 5157 5155 5152 5150 5147 5144 5141 5138 5135 5132 5129 5126 5123 5120 5117 5115 5112 5111 5109 5108 5108 5107 5107 5109 5110 5112 5114 5118 5122 5127 5131 5136 5141 5146 5151 5155 5159 5164
5197 5193 5189 5185 5182 5179 5176 5174 5172 5170 5170 5171 5171 5171 5171 5170 5170 5169 5168 5166 5164 5162 5159 5157 5155 5153 5151 5149 5147 5144 5141 5139 5136 5133 5130 5127 5124 5121 5118 5115 5113 5110 5109 5107 5106 5105 5105 5105 5105 5107 5108 5111 5114 5118 5122 5126 5131 5136 5140 5145 5149 5154 5158
5191 5186 5183 5179 5176 5173 5170 5169 5167 5165 5165 5166 5166 5166 5167 5166 5165 5165 5164 5162 5160 5158 5156 5154 5152 5150 5148 5146 5144 5141 5139 5136 5134 5131 5128 5125 5122 5120 5117 5114 5111 5109 5107 5105 5104 5103 5102 5102 5103 5104 5106 5108 5111 5114 5118 5122 5126 5130 5135 5139 5144 5148 5152
5184 5180 5176 5173 5170 5167 5165 5163 5162 5161 5160 5161 5161 5162 5162 5162 5161 5161 5160 5158 5157 5155 5153 5151 5148 5146 5144 5142 5140 5139 5136 5134 5131 5129 5126 5124 5121 5118 5116 5113 5110 5108 5106 5104 5103 5102 5101 5101 5101 5102 5104 5106 5108 5111 5114 5118 5122 5126 5130 5134 5139 5143 5147
5177 5174 5170 5167 5164 5161 5159 5158 5156 5156 5155 5156 5157 5158 5158 5158 5157 5157 5156 5155 5153 5152 5150 5148 5145 5143 5141 5139 5137 5135 5134 5131 5129 5127 5124 5122 5120 5117 5115 5113 5110 5108 5106 5104 5102 5101 5100 5100 5100 5101 5102 5104 5106 5109 5111 5115 5118 5122 5126 5130 5134 5139 5143
5171 5167 5164 5161 5158 5156 5154 5152 5151 5151 5151 5151 5152 5153 5154 5153 5153 5153 5152 5151 5150 5148 5146 5144 5142 5140 5138 5136 5134 5133 5131 5129 5127 5125 5123 5121 5119 5117 5114 5112 5110 5108 5106 5104 5102 5101 5100 5100 5100 5100 5101 5103 5105 5107 5109 5112 5115 5118 5122 5126 5130 5134 5138
5165 5161 5158 5155 5153 5150 5149 5147 5146 5146 5146 5147 5148 5149 5149 5149 5149 5149 5148 5147 5146 5145 5143 5141 5139 5137 5135 5133 5131 5130 5129 5127 5126 5124 5122 5120 5118 5116 5114 5112 5110 5108 5106 5104 5103 5102 5101 5100 5100 5100 5101 5102 5104 5105 5108 5110 5113 5116 5119 5122 5126 5130 5133
5159 5155 5152 5150 5147 5145 5143 5142 5141 5141 5141 5142 5143 5144 5145 5145 5145 5145 5145 5144 5143 5142 5140 5139 5137 5135 5133 5131 5129 5127 5126 5125 5124 5122 5121 5119 5117 5115 5113 5112 5110 5108 5107 5105 5104 5103 5102 5101 5101 5101 5101 5102 5103 5105 5106 5109 5111 5114 5116 5119 5123 5126 5130
5152 5149 5147 5144 5141 5139 5138 5137 5136 5136 5136 5137 5138 5140 5141 5141 5141 5141 5141 5141 5140 5139 5138 5136 5134 5132 5130 5128 5126 5125 5124 5123 5122 5121 5119 5118 5116 5114 5113 5111 5110 5109 5107 5106 5105 5104 5103 5102 5102 5102 5102 5103 5103 5105 5106 5108 5110 5112 5115 5117 5120 5123 5127
5146 5143 5141 5138 5136 5134 5133 5132 5131 5131 5131 5132 5134 5135 5136 5136 5137 5137 5137 5137 5137 5136 5135 5134 5132 5130 5128 5126 5124 5123 5121 5120 5120 5119 5118 5117 5115 5114 5113 5111 5110 5109 5108 5107 5106 5106 5105 5104 5104 5104 5104 5104 5104 5105 5106 5108 5110 5112 5114 5116 5119 5122 5124
5140 5137 5135 5132 5130 5128 5127 5127 5126 5125 5126 5127 5129 5130 5131 5132 5133 5133 5134 5134 5133 5133 5132 5131 5130 5128 5126 5124 5122 5121 5119 5118 5118 5117 5117 5116 5115 5114 5113 5112 5111 5110 5109 5108 5108 5107 5106 5106 5106 5105 5105 5106 5106 5107 5108 5109 5110 5112 5114 5116 5118 5121 5123
5134 5132 5129 5126 5124 5123 5122 5121 5121 5120 5121 5122 5124 5125 5127 5128 5128 5129 5130 5130 5130 5130 5129 5128 5127 5126 5124 5122 5121 5119 5117 5116 5116 5115 5115 5114 5114 5113 5112 5112 5111 5110 5109 5109 5108 5108 5108 5108 5107 5107 5107 5108 5108 5109 5109 5110 5112 5113 5115 5116 5119 5121 5123
5127 5125 5123 5121 5119 5117 5116 5116 5116 5115 5116 5117 5118 5120 5122 5123 5124 5124 5125 5126 5126 5126 5126 5126 5125 5124 5122 5121 5119 5117 5116 5115 5114 5113 5113 5113 5113 5113 5112 5111 5111 5110 5110 5109 5109 5109 5109 5109 5109 5109 5109 5110 5110 5111 5111 5112 5113 5115 5116 5118 5120 5122 5124
5121 5119 5117 5115 5113 5112 5111 5111 5110 5110 5110 5111 5113 5115 5117 5118 5119 5120 5121 5122 5123 5123 5123 5123 5122 5122 5121 5119 5118 5116 5115 5114 5113 5112 5112 5111 5111 5111 5111 5111 5111 5110 5110 5110 5110 5110 5110 5110 5110 5110 5111 5111 5112 5113 5113 5114 5115 5117 5118 5119 5121 5123 5125